AAL27 KMIA-KSEA

Flight info

Callsign AAL27
Flight time N/A
Altitude 34000
Route HURCN4 SMELZ Q116 JAWJA MGM IGB UJM OSW/N0457F360 HLC MBW DBS PDT CHINS5
Aircraft B752/M-SDE2E3FGHIJ3J4J7RWXY/LB1

Departure

Time 2026-05-03 21:39
Airport Miami International Airport (KMIA)

Arrival

Time N/A
Airport Seattle–Tacoma International Airport (KSEA)
Time Latitude Longitude Altitude Speed Heading
2026-05-03 21:04 25.79091 -80.27608 14 ft 0 kts 306°
2026-05-03 21:23 25.79091 -80.27607 14 ft 0 kts 306°
2026-05-03 21:27 25.79085 -80.27598 14 ft 0 kts 306°
2026-05-03 21:28 25.79079 -80.27586 13 ft 2 kts 285°
2026-05-03 21:28 25.79078 -80.27570 13 ft 2 kts 261°
2026-05-03 21:28 25.79083 -80.27554 13 ft 2 kts 236°
2026-05-03 21:28 25.79093 -80.27543 13 ft 2 kts 211°
2026-05-03 21:29 25.79107 -80.27537 13 ft 2 kts 186°
2026-05-03 21:29 25.79115 -80.27537 13 ft 1 kts 175°
2026-05-03 21:29 25.79117 -80.27537 13 ft 0 kts 177°
2026-05-03 21:31 25.79115 -80.27537 13 ft 1 kts 177°
2026-05-03 21:31 25.79086 -80.27535 13 ft 6 kts 177°
2026-05-03 21:31 25.79024 -80.27531 13 ft 11 kts 177°
2026-05-03 21:32 25.78922 -80.27539 14 ft 18 kts 199°
2026-05-03 21:32 25.78878 -80.27659 13 ft 19 kts 275°
2026-05-03 21:32 25.78874 -80.27839 13 ft 25 kts 268°
2026-05-03 21:32 25.78904 -80.28008 13 ft 20 kts 299°
2026-05-03 21:33 25.78970 -80.28138 14 ft 18 kts 299°
2026-05-03 21:33 25.79050 -80.28294 14 ft 28 kts 298°
2026-05-03 21:33 25.79147 -80.28476 14 ft 25 kts 306°
2026-05-03 21:33 25.79239 -80.28634 15 ft 22 kts 299°
2026-05-03 21:34 25.79313 -80.28775 16 ft 21 kts 300°
2026-05-03 21:34 25.79396 -80.28939 15 ft 28 kts 300°
2026-05-03 21:34 25.79490 -80.29122 13 ft 27 kts 300°
2026-05-03 21:34 25.79580 -80.29298 13 ft 25 kts 299°
2026-05-03 21:35 25.79661 -80.29457 13 ft 22 kts 300°
2026-05-03 21:35 25.79735 -80.29602 13 ft 19 kts 299°
2026-05-03 21:35 25.79797 -80.29724 14 ft 16 kts 299°
2026-05-03 21:35 25.79822 -80.29772 13 ft 0 kts 300°
2026-05-03 21:36 25.79829 -80.29781 13 ft 3 kts 321°
2026-05-03 21:36 25.79866 -80.29797 13 ft 8 kts 339°
2026-05-03 21:36 25.79921 -80.29842 13 ft 11 kts 319°
2026-05-03 21:36 25.79984 -80.29910 13 ft 9 kts 292°
2026-05-03 21:37 25.79995 -80.29997 13 ft 13 kts 283°
2026-05-03 21:37 25.80042 -80.30093 14 ft 10 kts 340°
2026-05-03 21:37 25.80072 -80.30065 13 ft 4 kts 82°
2026-05-03 21:37 25.80074 -80.30048 13 ft 0 kts 87°
2026-05-03 21:38 25.80074 -80.30045 13 ft 0 kts 87°
2026-05-03 21:38 25.80080 -80.29924 14 ft 49 kts 86°
2026-05-03 21:38 25.80108 -80.29237 14 ft 127 kts 88°
2026-05-03 21:38 25.80162 -80.28014 166 ft 180 kts 86°
2026-05-03 21:39 25.80242 -80.26549 777 ft 200 kts 86°
2026-05-03 21:39 25.80311 -80.24956 1505 ft 209 kts 86°
2026-05-03 21:39 25.80376 -80.23303 1776 ft 226 kts 86°
2026-05-03 21:39 25.80447 -80.21493 2080 ft 242 kts 86°
2026-05-03 21:40 25.80519 -80.19611 2681 ft 245 kts 84°
2026-05-03 21:40 25.80971 -80.17731 2908 ft 263 kts 57°
2026-05-03 21:40 25.82262 -80.16304 3405 ft 268 kts 27°
2026-05-03 21:40 25.84050 -80.15749 3985 ft 270 kts 360°
2026-05-03 21:41 25.85922 -80.15768 4593 ft 273 kts 359°
2026-05-03 21:41 25.87828 -80.15738 5199 ft 277 kts 359°
2026-05-03 21:41 25.89754 -80.15905 5779 ft 278 kts 342°
2026-05-03 21:41 25.91599 -80.16534 6432 ft 278 kts 340°
2026-05-03 21:42 25.93449 -80.17158 6966 ft 285 kts 340°
2026-05-03 21:42 25.95406 -80.17830 6999 ft 292 kts 340°
2026-05-03 21:42 25.97287 -80.18559 6989 ft 280 kts 328°
2026-05-03 21:42 25.98718 -80.19914 7032 ft 270 kts 301°
2026-05-03 21:43 25.99604 -80.21806 7331 ft 278 kts 293°
2026-05-03 21:43 26.00387 -80.23695 8214 ft 270 kts 292°
2026-05-03 21:43 26.01152 -80.25636 8687 ft 278 kts 290°
2026-05-03 21:43 26.01899 -80.27602 9417 ft 276 kts 290°
2026-05-03 21:44 26.02628 -80.29565 10006 ft 279 kts 290°
2026-05-03 21:44 26.03369 -80.31585 10376 ft 290 kts 289°
2026-05-03 21:44 26.04146 -80.33724 10543 ft 309 kts 289°
2026-05-03 21:44 26.04982 -80.36031 10682 ft 329 kts 290°
2026-05-03 21:45 26.05856 -80.38449 10841 ft 347 kts 289°
2026-05-03 21:45 26.06769 -80.40977 11094 ft 361 kts 290°
2026-05-03 21:45 26.07701 -80.43557 11724 ft 362 kts 289°
2026-05-03 21:45 26.08637 -80.46152 12223 ft 366 kts 289°
2026-05-03 21:46 26.09583 -80.48781 12797 ft 368 kts 289°
2026-05-03 21:46 26.10536 -80.51430 13346 ft 369 kts 289°
2026-05-03 21:46 26.11499 -80.54112 13843 ft 372 kts 289°
2026-05-03 21:46 26.12595 -80.56685 14402 ft 377 kts 300°
2026-05-03 21:47 26.14306 -80.58948 14850 ft 385 kts 314°
2026-05-03 21:47 26.16464 -80.60713 15299 ft 391 kts 325°
2026-05-03 21:47 26.18959 -80.62041 15683 ft 401 kts 334°
2026-05-03 21:47 26.21545 -80.63153 15969 ft 403 kts 333°
2026-05-03 21:48 26.24193 -80.64360 15970 ft 407 kts 333°
2026-05-03 21:48 26.26779 -80.65560 15975 ft 402 kts 332°
2026-05-03 21:48 26.29356 -80.66773 15966 ft 400 kts 332°
2026-05-03 21:48 26.31908 -80.67985 15983 ft 404 kts 332°
2026-05-03 21:49 26.34518 -80.69230 16457 ft 404 kts 332°
2026-05-03 21:49 26.37095 -80.70465 16835 ft 407 kts 330°
2026-05-03 21:49 26.39566 -80.71967 17247 ft 403 kts 320°
2026-05-03 21:49 26.41739 -80.73953 17556 ft 401 kts 310°
2026-05-03 21:50 26.43646 -80.76177 18008 ft 399 kts 309°
2026-05-03 21:50 26.45577 -80.78448 18356 ft 402 kts 308°
2026-05-03 21:50 26.47487 -80.80724 18775 ft 402 kts 308°
2026-05-03 21:50 26.49398 -80.83015 19047 ft 407 kts 308°
2026-05-03 21:51 26.51323 -80.85333 19490 ft 407 kts 308°
2026-05-03 21:51 26.53253 -80.87662 19758 ft 411 kts 307°
2026-05-03 21:51 26.55192 -80.90006 20165 ft 411 kts 307°
2026-05-03 21:51 26.57118 -80.92338 20468 ft 413 kts 307°
2026-05-03 21:52 26.59060 -80.94691 20782 ft 415 kts 307°
2026-05-03 21:52 26.61017 -80.97063 21148 ft 416 kts 307°
2026-05-03 21:52 26.63004 -80.99475 21423 ft 418 kts 307°
2026-05-03 21:52 26.64958 -81.01846 21692 ft 421 kts 307°
2026-05-03 21:53 26.66953 -81.04270 22050 ft 421 kts 307°
2026-05-03 21:53 26.68921 -81.06663 22262 ft 425 kts 307°
2026-05-03 21:53 26.70937 -81.09114 22586 ft 425 kts 307°
2026-05-03 21:53 26.72934 -81.11543 22887 ft 426 kts 307°
2026-05-03 21:54 26.74940 -81.13987 23105 ft 430 kts 307°
2026-05-03 21:54 26.76955 -81.16443 23409 ft 431 kts 307°
2026-05-03 21:54 26.79006 -81.18942 23701 ft 433 kts 307°
2026-05-03 21:54 26.81021 -81.21400 24002 ft 434 kts 307°
2026-05-03 21:55 26.83074 -81.23906 24297 ft 435 kts 307°
2026-05-03 21:55 26.85128 -81.26414 24586 ft 437 kts 307°
2026-05-03 21:55 26.87180 -81.28921 24942 ft 437 kts 306°
2026-05-03 21:55 26.89218 -81.31413 25213 ft 439 kts 307°
2026-05-03 21:56 26.91311 -81.33974 25468 ft 442 kts 306°
2026-05-03 21:56 26.93364 -81.36485 25827 ft 442 kts 306°
2026-05-03 21:56 26.95440 -81.39029 26101 ft 443 kts 306°
2026-05-03 21:56 26.97541 -81.41603 26386 ft 445 kts 306°
2026-05-03 21:57 26.99628 -81.44162 26574 ft 448 kts 306°
2026-05-03 21:57 27.01723 -81.46731 26981 ft 446 kts 306°
2026-05-03 21:57 27.03846 -81.49299 27110 ft 453 kts 309°
2026-05-03 21:57 27.06267 -81.51579 27477 ft 461 kts 317°
2026-05-03 21:58 27.08957 -81.53577 27651 ft 466 kts 320°
2026-05-03 21:58 27.11682 -81.55562 27980 ft 466 kts 319°
2026-05-03 21:58 27.14403 -81.57541 28118 ft 469 kts 320°
2026-05-03 21:58 27.17121 -81.59511 28377 ft 470 kts 320°
2026-05-03 21:59 27.19880 -81.61510 28548 ft 472 kts 320°
2026-05-03 21:59 27.22663 -81.63523 28793 ft 473 kts 319°
2026-05-03 21:59 27.25410 -81.65511 29094 ft 472 kts 319°
2026-05-03 21:59 27.28136 -81.67482 29616 ft 466 kts 319°
2026-05-03 22:00 27.30875 -81.69463 29935 ft 466 kts 318°
2026-05-03 22:00 27.33577 -81.71423 30281 ft 463 kts 318°
2026-05-03 22:00 27.36273 -81.73373 30615 ft 461 kts 318°
2026-05-03 22:00 27.38965 -81.75327 30858 ft 460 kts 317°
2026-05-03 22:01 27.41667 -81.77290 31089 ft 460 kts 317°
2026-05-03 22:01 27.44364 -81.79245 31396 ft 458 kts 317°
2026-05-03 22:01 27.47226 -81.80979 31656 ft 468 kts 326°
2026-05-03 22:01 27.50200 -81.82435 31954 ft 465 kts 326°
2026-05-03 22:02 27.53139 -81.83884 32077 ft 467 kts 325°
2026-05-03 22:02 27.56118 -81.85343 32409 ft 463 kts 325°
2026-05-03 22:02 27.62042 -81.88245 32611 ft 465 kts 325°
2026-05-03 22:03 27.65003 -81.89692 32832 ft 464 kts 324°
2026-05-03 22:03 27.67977 -81.91148 32845 ft 467 kts 324°
2026-05-03 22:03 27.70964 -81.92607 33062 ft 464 kts 324°
2026-05-03 22:03 27.73914 -81.94049 33253 ft 463 kts 324°
2026-05-03 22:04 27.76859 -81.95487 33554 ft 460 kts 324°
2026-05-03 22:04 27.79775 -81.96917 33730 ft 459 kts 324°
2026-05-03 22:04 27.82697 -81.98344 34041 ft 454 kts 324°
2026-05-03 22:04 27.85617 -81.99777 34022 ft 456 kts 323°
2026-05-03 22:05 27.91406 -82.02617 34030 ft 453 kts 323°
2026-05-03 22:05 27.97191 -82.05461 34037 ft 455 kts 323°
2026-05-03 22:06 28.02974 -82.08304 34033 ft 456 kts 323°
2026-05-03 22:06 28.08774 -82.11208 34030 ft 446 kts 319°
2026-05-03 22:07 28.11340 -82.13039 34040 ft 432 kts 310°
2026-05-03 22:07 28.13739 -82.15066 34025 ft 431 kts 311°
2026-05-03 22:07 28.18627 -82.19074 34033 ft 433 kts 312°
2026-05-03 22:08 28.23534 -82.23035 34025 ft 434 kts 312°
2026-05-03 22:08 28.28437 -82.26974 34033 ft 433 kts 312°
2026-05-03 22:09 28.33373 -82.30933 34031 ft 436 kts 312°
2026-05-03 22:10 28.40788 -82.36878 34024 ft 436 kts 312°
2026-05-03 22:10 28.45751 -82.40864 34028 ft 435 kts 312°
2026-05-03 22:11 28.50688 -82.44832 34028 ft 435 kts 312°
2026-05-03 22:11 28.55616 -82.48797 34030 ft 436 kts 311°
2026-05-03 22:12 28.60570 -82.52788 34028 ft 438 kts 312°
2026-05-03 22:12 28.65533 -82.56789 34042 ft 436 kts 312°
2026-05-03 22:13 28.70500 -82.60799 34028 ft 436 kts 312°
2026-05-03 22:13 28.75420 -82.64778 34025 ft 438 kts 312°
2026-05-03 22:14 28.80384 -82.68797 34048 ft 438 kts 311°
2026-05-03 22:14 28.85343 -82.72815 34038 ft 438 kts 311°
2026-05-03 22:15 28.90311 -82.76844 34035 ft 438 kts 311°
2026-05-03 22:15 28.95283 -82.80885 34044 ft 440 kts 311°
2026-05-03 22:16 29.00229 -82.84903 34042 ft 436 kts 311°
2026-05-03 22:16 29.05172 -82.88931 34041 ft 439 kts 311°
2026-05-03 22:17 29.10115 -82.92960 34044 ft 438 kts 312°
2026-05-03 22:17 29.15097 -82.97027 34033 ft 438 kts 312°
2026-05-03 22:18 29.20034 -83.01062 34053 ft 437 kts 312°
2026-05-03 22:18 29.24950 -83.05083 34023 ft 436 kts 312°
2026-05-03 22:19 29.29902 -83.09143 34023 ft 440 kts 312°
2026-05-03 22:19 29.34904 -83.13243 34030 ft 439 kts 313°
2026-05-03 22:20 29.39826 -83.17285 34042 ft 438 kts 313°
2026-05-03 22:20 29.44785 -83.21363 34039 ft 440 kts 313°
2026-05-03 22:21 29.49786 -83.25482 34036 ft 443 kts 313°
2026-05-03 22:21 29.54772 -83.29588 34039 ft 441 kts 313°
2026-05-03 22:22 29.59754 -83.33700 34037 ft 439 kts 313°
2026-05-03 22:22 29.64734 -83.37817 34041 ft 441 kts 313°
2026-05-03 22:23 29.69700 -83.41924 34068 ft 441 kts 313°
2026-05-03 22:23 29.74684 -83.46057 34069 ft 444 kts 314°
2026-05-03 22:24 29.79659 -83.50178 34069 ft 440 kts 314°
2026-05-03 22:24 29.84644 -83.54320 34067 ft 443 kts 314°
2026-05-03 22:25 29.89666 -83.58495 34062 ft 446 kts 314°
2026-05-03 22:25 29.94662 -83.62648 34064 ft 443 kts 314°
2026-05-03 22:26 29.99658 -83.66811 34097 ft 444 kts 314°
2026-05-03 22:26 30.04655 -83.70979 34093 ft 444 kts 314°
2026-05-03 22:27 30.09624 -83.75128 34092 ft 443 kts 314°
2026-05-03 22:27 30.14643 -83.79327 34083 ft 446 kts 314°
2026-05-03 22:28 30.19394 -83.83812 34090 ft 434 kts 304°
2026-05-03 22:28 30.23542 -83.88834 34072 ft 432 kts 304°
2026-05-03 22:29 30.27747 -83.93861 34079 ft 434 kts 305°
2026-05-03 22:29 30.31934 -83.98846 34078 ft 434 kts 305°
2026-05-03 22:30 30.36131 -84.03841 34083 ft 435 kts 305°
2026-05-03 22:30 30.40363 -84.08880 34084 ft 435 kts 305°
2026-05-03 22:31 30.44558 -84.13879 34084 ft 432 kts 305°
2026-05-03 22:31 30.48740 -84.18871 34091 ft 436 kts 305°
2026-05-03 22:32 30.52946 -84.23895 34089 ft 435 kts 305°
2026-05-03 22:32 30.57175 -84.28955 34087 ft 436 kts 305°
2026-05-03 22:33 30.61399 -84.34013 34091 ft 435 kts 306°
2026-05-03 22:33 30.65590 -84.39042 34089 ft 437 kts 305°
2026-05-03 22:34 30.69824 -84.44125 34081 ft 435 kts 305°
2026-05-03 22:34 30.74022 -84.49177 34084 ft 438 kts 306°
2026-05-03 22:35 30.78242 -84.54257 34089 ft 437 kts 305°
2026-05-03 22:35 30.82458 -84.59342 34087 ft 437 kts 306°
2026-05-03 22:36 30.86672 -84.64432 34090 ft 439 kts 306°
2026-05-03 22:36 30.90917 -84.69564 34112 ft 438 kts 305°
2026-05-03 22:37 30.95146 -84.74686 34109 ft 440 kts 305°
2026-05-03 22:37 30.99370 -84.79806 34106 ft 439 kts 305°
2026-05-03 22:38 31.03602 -84.84945 34101 ft 438 kts 305°
2026-05-03 22:38 31.07804 -84.90054 34096 ft 439 kts 306°
2026-05-03 22:39 31.12042 -84.95213 34077 ft 440 kts 305°
2026-05-03 22:39 31.16252 -85.00346 34076 ft 439 kts 306°
2026-05-03 22:40 31.20478 -85.05505 34086 ft 439 kts 306°
2026-05-03 22:40 31.24710 -85.10680 34090 ft 441 kts 306°
2026-05-03 22:41 31.28939 -85.15856 34096 ft 440 kts 306°
2026-05-03 22:41 31.33144 -85.21011 34095 ft 439 kts 306°
2026-05-03 22:42 31.37350 -85.26176 34100 ft 441 kts 306°